Home | Tutorials | Wiki | Issues
Ask Your Question

chapulina's profile - karma

chapulina's karma change log

15 0 Is there a floating joint in Gazebo? ( 2019-10-21 08:32:49 -0500 )

10 0 Change color of one side of box ( 2019-10-18 02:15:58 -0500 )

15 0 What is community wiki question? ( 2019-10-14 09:55:17 -0500 )

0 -2 Standard Units of Measure and Coordinate Conventions in Gazebo ( 2019-10-14 08:06:43 -0500 )

10 0 How to make GpuRay visible by the cameras? ( 2019-10-10 10:46:25 -0500 )

15 0 List of replacing methods between gazebo versions ( 2019-09-17 03:37:56 -0500 )

2 0 including models in world file, cannot access joint in model ( 2019-09-03 12:06:04 -0500 )

10 0 How to set a right revolute joint coordinate? ( 2019-08-23 11:14:23 -0500 )

15 0 How to set a right revolute joint coordinate? ( 2019-08-23 10:46:39 -0500 )

0 -15 How to set a right revolute joint coordinate? ( 2019-08-22 21:35:27 -0500 )

15 0 How to set a right revolute joint coordinate? ( 2019-08-22 21:35:23 -0500 )

15 0 Texture does not work properly ( 2019-08-22 03:37:44 -0500 )

10 0 Texture does not work properly ( 2019-08-22 03:37:44 -0500 )

10 0 sdf required attribute ( 2019-08-21 04:38:27 -0500 )

15 0 Programming in Gazebo using source code ( 2019-08-21 02:40:19 -0500 )

15 0 How can I check if a commit has been updated to my Gazebo? ( 2019-07-23 13:18:53 -0500 )

0 -15 How can I check if a commit has been updated to my Gazebo? ( 2019-07-23 13:18:53 -0500 )

0 -10 Problem with launching the gazebo ( 2019-07-15 22:21:24 -0500 )

10 0 Problem with launching the gazebo ( 2019-07-15 22:21:22 -0500 )

10 0 Sliding problem with stack of boxes ( 2019-07-10 04:50:02 -0500 )

15 0 i want to insert human in gazebo for implementing computer vision ( 2019-06-26 10:54:05 -0500 )

15 0 Running code in loop inside gazebo-ros plugin ( 2019-06-26 00:37:32 -0500 )

10 0 Change arrow size of origin (coordinate frame) ( 2019-06-20 08:48:03 -0500 )

0 -2 i want to insert human in gazebo for implementing computer vision ( 2019-06-19 10:51:04 -0500 )

2 0 i want to insert human in gazebo for implementing computer vision ( 2019-06-19 10:50:42 -0500 )

10 0 Skateboard ramp in Gazebo editor ( 2019-06-19 07:50:54 -0500 )

10 0 resize simple objects to specific sizes ( 2019-06-18 05:08:47 -0500 )

0 -15 Conversion of a jpg or png image to a world file in gazebo. ( 2019-05-12 16:02:27 -0500 )

15 0 Conversion of a jpg or png image to a world file in gazebo. ( 2019-05-12 16:02:26 -0500 )

10 0 What does the sensor tag do? ( 2019-05-07 10:45:50 -0500 )

10 0 relative frame in pose tag is not working ( 2019-04-24 01:19:08 -0500 )

15 0 relative frame in pose tag is not working ( 2019-04-24 01:19:06 -0500 )

10 0 Error in REST request for accessing api.ignition.org ( 2019-04-20 07:33:52 -0500 )

15 0 Error in REST request for accessing api.ignition.org ( 2019-04-20 07:33:38 -0500 )

10 0 GAZEBO_MODEL_PATH on the command line? ( 2019-04-17 17:05:26 -0500 )

15 0 GAZEBO_MODEL_PATH on the command line? ( 2019-04-17 17:05:02 -0500 )

10 0 Error in REST request for accessing api.ignition.org ( 2019-04-12 23:39:08 -0500 )

15 0 GetJointController() equivalent function for a link to handle control to links ( 2019-04-12 17:39:01 -0500 )

0 -15 GetJointController() equivalent function for a link to handle control to links ( 2019-04-12 17:39:00 -0500 )

15 0 GetJointController() equivalent function for a link to handle control to links ( 2019-04-12 17:38:51 -0500 )

15 0 Gazebo 7.0.0 crash on heightmap insertion ( 2019-04-06 15:12:27 -0500 )

15 0 How to open several gazebos in a linux operating system? ( 2019-04-06 14:52:12 -0500 )

10 0 Fixed joint vs Continuous joint ( 2019-04-02 09:12:39 -0500 )

10 0 Fixed joint vs Continuous joint ( 2019-04-02 02:50:23 -0500 )

10 0 What is the different between SDF's gpu_ray sensor and ray sensor? ( 2019-03-26 05:04:40 -0500 )

15 0 Link Local Coordinate Frame ( 2019-03-07 00:00:13 -0500 )

15 0 gazebo is running but black screen is coming.how can i solve this problem. i m using ubuntu 16.04 ros kinetic gazebo 7.0 ( 2019-02-21 15:35:14 -0500 )

10 0 Vector3.hh not found on Gazebo9 ( 2019-02-20 07:09:47 -0500 )

15 0 Vector3.hh not found on Gazebo9 ( 2019-02-20 07:09:46 -0500 )

15 0 World doesn't load properly in launch file ( 2019-02-10 14:48:21 -0500 )

10 0 World doesn't load properly in launch file ( 2019-02-10 14:48:20 -0500 )

15 0 Get collision state of model without contact sensor ( 2019-02-06 20:08:45 -0500 )

0 -15 Get collision state of model without contact sensor ( 2019-02-06 20:08:31 -0500 )

10 0 Get collision state of model without contact sensor ( 2019-02-06 20:08:29 -0500 )

15 0 Get collision state of model without contact sensor ( 2019-02-06 20:08:29 -0500 )

15 0 When the event worldCreated is triggered? ( 2019-01-31 08:32:29 -0500 )

10 0 When the event worldCreated is triggered? ( 2019-01-31 08:32:07 -0500 )

10 0 How to open several gazebos in a linux operating system? ( 2019-01-31 05:27:50 -0500 )

15 0 no matching function for call to ‘rclcpp::AnyServiceCallback<gazebo_msgs::srv::GetModelList>::set ( 2019-01-15 05:22:13 -0500 )

15 0 Why is the Real Time Factor different in /gazebo/diagnostics topic and in the bottom toolbar in the simulation? ( 2019-01-10 09:29:54 -0500 )

15 0 [ros2] reset_world/reset_simulation fail with URDF ( 2019-01-07 05:08:24 -0500 )

0 -15 [ros2] reset_world/reset_simulation fail with URDF ( 2019-01-07 05:08:24 -0500 )

15 0 [ros2] reset_world/reset_simulation fail with URDF ( 2019-01-07 05:08:24 -0500 )

15 0 Simulated robot is building a tower of blocks in Gazebo 7, blocks are sliding ( 2019-01-05 00:23:54 -0500 )

10 0 Cannot delete models when using the transport system ( 2019-01-04 15:09:18 -0500 )

15 0 Cannot delete models when using the transport system ( 2019-01-04 15:09:17 -0500 )

10 0 [ros2] reset_world/reset_simulation fail with URDF ( 2019-01-03 12:34:06 -0500 )

10 0 How to make GpuRay visible by the cameras? ( 2018-12-29 00:46:19 -0500 )

15 0 How to make GpuRay visible by the cameras? ( 2018-12-29 00:46:15 -0500 )

10 0 How to change thickness of Dynamic Lines? ( 2018-12-20 02:11:56 -0500 )

10 0 How to get a model position in Gazebo World Plugin? ( 2018-12-20 01:42:58 -0500 )

15 0 How to change thickness of Dynamic Lines? ( 2018-12-20 01:42:12 -0500 )

15 0 How to get a model position in Gazebo World Plugin? ( 2018-12-19 02:54:33 -0500 )

0 -15 How to get a model position in Gazebo World Plugin? ( 2018-12-19 02:54:31 -0500 )

15 0 How to get a model position in Gazebo World Plugin? ( 2018-12-19 02:54:30 -0500 )

10 0 How to get a model position in Gazebo World Plugin? ( 2018-12-19 02:54:30 -0500 )

0 -15 Option in World file to make camera follow model ( 2018-12-17 17:51:11 -0500 )

10 0 Option in World file to make camera follow model ( 2018-12-17 17:49:22 -0500 )

15 0 Option in World file to make camera follow model ( 2018-12-17 17:49:20 -0500 )

15 0 The minimum corner of the box must be less than or equal to maximum corner ( 2018-12-17 14:00:51 -0500 )

10 0 Can't compile custom plugin ( 2018-12-17 03:19:37 -0500 )

0 -10 Can't compile custom plugin ( 2018-12-17 03:19:36 -0500 )

10 0 Can't compile custom plugin ( 2018-12-17 03:19:35 -0500 )

10 0 Where do I find gazebo message structure? ( 2018-12-13 02:47:19 -0500 )

15 0 Where do I find gazebo message structure? ( 2018-12-13 02:45:42 -0500 )

10 0 Where do I find gazebo message structure? ( 2018-12-11 16:30:43 -0500 )

15 0 Why does the spring joint plugin not work? ( 2018-12-10 04:05:25 -0500 )

10 0 Why does the spring joint plugin not work? ( 2018-12-10 04:05:23 -0500 )

10 0 How can I correct a tutorial? ( 2018-12-06 10:58:36 -0500 )

2 0 Where are the source code of libgazebo_ros plugins? ( 2018-12-05 11:13:30 -0500 )

10 0 Where are the source code of libgazebo_ros plugins? ( 2018-12-05 11:06:22 -0500 )

10 0 How can I correct a tutorial? ( 2018-12-03 20:09:43 -0500 )

15 0 Real Time Timer stops after using world_control message ( 2018-12-03 07:18:25 -0500 )

10 0 Running Gazebo without being superuser ( 2018-11-29 04:55:50 -0500 )

15 0 Running Gazebo without being superuser ( 2018-11-29 04:55:48 -0500 )

10 0 UI Scaled incorrectly in Gazebo 8 and 9 on macOS Mojave (10.14.1) and low frame rate. ( 2018-11-28 12:01:19 -0500 )

15 0 UI Scaled incorrectly in Gazebo 8 and 9 on macOS Mojave (10.14.1) and low frame rate. ( 2018-11-28 12:01:18 -0500 )

10 0 Real Time Timer stops after using world_control message ( 2018-11-28 00:43:41 -0500 )

10 0 Where are the source code of libgazebo_ros plugins? ( 2018-11-26 07:53:55 -0500 )

0 -10 Where are the source code of libgazebo_ros plugins? ( 2018-11-26 07:53:54 -0500 )